Weather Roundup
Issued by NWS

Home | Current Version | Previous Version | Graphics & Text | Print | Product List | Glossary Off
Versions: 1 2 3 4 5 6 7 8 9 10 11 12 13 14 15 16 17 18 19 20 21 22 23 24 25 26 27 28 29 30 31 32 33 34 35 36 37 38 39 40 41 42 43 44 45 46 47 48 49 50

000
NZUS93 KARX 291410
HRRWXR

CURRENT HOURLY OBSERVATIONS ACROSS
MUCH OF THE UPPER MISSISSIPPI VALLEY
NATIONAL WEATHER SERVICE LA CROSSE WI
900 AM CDT SUN MAR 29 2015


...SOUTHEAST MINNESOTA...


CITY           SKY/WX    TMP DP  RH WIND       PRES   REMARKS
ROCHESTER      PTSUNNY   34  30  85 S31G39    29.68F WCI  20
ROCHESTER/MAYO CLOUDY    35  31  87 S17G30    29.68F WCI  24
WINONA         CLOUDY    36  32  87 SW12G18   29.73F WCI  27
AUSTIN         CLOUDY    34  30  86 S16G22    29.70F WCI  23
ALBERT LEA     SUNNY     39  36  87 SW14G22   29.69F WCI  31
DODGE CENTER   PTSUNNY   34  32  93 S26G33    29.65F WCI  21
PRESTON        CLOUDY    32  29  90 S14       29.74F WCI  22
OWATONNA       CLOUDY    37  32  81 S22       29.65F WCI  27
FARIBAULT      CLOUDY    37  34  87 S14G21    29.64F WCI  29
$$

...ELSEWHERE IN MINNESOTA...


CITY           SKY/WX    TMP DP  RH WIND       PRES   REMARKS
MINNEAPOLIS    CLOUDY    38  32  79 S17G26    29.60F WCI  28
INTNL FALLS    LGT RAIN  34  32  92 W7        29.42S FOG     WCI  28
DULUTH         LGT RAIN  35  29  78 SW22G28   29.47F WCI  23
RED WING       CLOUDY    37  30  75 S12G23    29.64F WCI  30
REDWOOD FALLS  SUNNY     48  38  68 W20G28    29.62S
MANKATO        PTSUNNY   39  32  75 SW15      29.63F WCI  31
WORTHINGTON    SUNNY     46  37  71 W22G28    29.72R
FAIRMONT       SUNNY     46  37  71 W18       29.66S
$$

...SOUTHWEST WISCONSIN...


CITY           SKY/WX    TMP DP  RH WIND       PRES   REMARKS
LA CROSSE      CLOUDY    35  30  82 S15       29.76F WCI  25
PRAIRIE DU CHI CLOUDY    34  28  79 S13G18    29.84S WCI  25
BOSCOBEL       CLOUDY    35  28  75 S12G24    29.84F WCI  27
LONE ROCK      FRZ RAIN  33  27  78 S10G17    29.86F WCI  25
PLATTEVILLE    CLOUDY    32  29  87 SE13      29.86F WCI  22
FORT MC COY    CLOUDY    33  29  84 SW6       29.76F WCI  28
CAMP DOUGLAS   LGT RAIN  34  32  93 S18G29    29.76F WCI  23
VIROQUA        CLOUDY    32  30  93 S12       29.78F WCI  23
WIS DELLS      MIX PCPN  32  27  80 S17G23    29.80F WCI  21
$$

...ELSEWHERE IN WISCONSIN...


CITY           SKY/WX    TMP DP  RH WIND       PRES   REMARKS
MILWAUKEE      CLOUDY    36  15  42 S18G32    30.01F WCI  26
MADISON        FRZ RAIN  34  22  61 S24G30    29.88F WCI  21
GREEN BAY      PTSUNNY   35  20  54 S18G31    29.87F WCI  24
EAU CLAIRE     CLOUDY    33  28  81 S12       29.65F WCI  24
BLACK RVR FLS  CLOUDY    33  30  88 S5        29.74F WCI  28
MEDFORD        MIX PCPN  30  26  85 S14       29.68F WCI  19
WAUSAU         MIX PCPN  30  25  81 S20G25    29.71F WCI  17
WIS RAPIDS     FRZ RAIN  31  25  78 S13       29.77F WCI  21
MARSHFIELD     CLOUDY    32  26  78 S15       29.71F WCI  22
RICE LAKE      CLOUDY    33  30  88 S16       29.63F WCI  23
$$

...NORTHEAST IOWA...


CITY           SKY/WX    TMP DP  RH WIND       PRES   REMARKS
DECORAH        CLOUDY    34  30  86 S16G28    29.77F WCI  23
MASON CITY     MOSUNNY   37  34  89 S17G28    29.73F WCI  27
CHARLES CITY   CLOUDY    34  34 100 S21G29    29.76F WCI  22
OELWEIN        CLOUDY    34  32  93 S21G26    29.83F WCI  22
$$

...ELSEWHERE IN IOWA...


CITY           SKY/WX    TMP DP  RH WIND       PRES   REMARKS
DES MOINES     CLOUDY    43  37  79 SW17      29.88F
IOWA CITY      CLOUDY    34  30  85 S18G25    29.91F WCI  23
FORT DODGE     PTSUNNY   41  34  75 SW18G24   29.79S
$$

...NORTHERN ILLINOIS...


CITY           SKY/WX    TMP DP  RH WIND       PRES   REMARKS
CHICAGO-OHARE  CLOUDY    34  16  47 S21G29    30.06F WCI  22
CHICAGO-MIDWAY PTSUNNY   36  17  46 S18G30    30.09F WCI  26
MOLINE         LGT RAIN  34  27  75 S18G33    29.93F WCI  23
ROCKFORD       CLOUDY    34  20  56 S24       30.02F WCI  21
PEORIA         PTSUNNY   37  21  52 S21G29    30.07F WCI  26
$$

NOTE: "FAIR" INDICATES FEW OR NO CLOUDS BELOW 12,000 FEET WITH NO
SIGNIFICANT WEATHER AND/OR OBSTRUCTIONS TO VISIBILITY. WIND
SPEEDS ARE IN MILES-PER-HOUR.



USA.gov is the U.S. government's official web portal to all federal, state and local government web resources and services.